E1521 Weather Reports


Display with metric or nautical units.
time (UTC)temp
F
wind
direction
speed
MPH
gust
MPH
rain 1hr
in
rain 24hr
in
rain mn
in
humidity
%
barometer
mb
20260510123515 67 129 1.0 4.0 0.00 0.00 0.00 28 1010.8
20260510122539 68 127 1.0 4.0 0.00 0.00 0.00 27 1010.7
20260510121515 68 128 2.0 4.0 0.00 0.00 0.00 26 1010.6
20260510120535 68 131 1.0 3.0 0.00 0.00 0.00 27 1010.6
20260510115515 68 132 1.0 3.0 0.00 0.00 0.00 28 1010.7
20260510114516 68 93 0.0 3.0 0.00 0.00 0.00 29 1010.7
20260510113537 69 85 0.0 2.0 0.00 0.00 0.00 28 1010.6
20260510112517 68 96 0.0 1.0 0.00 0.00 0.00 28 1010.6
20260510111517 69 145 0.0 2.0 0.00 0.00 0.00 28 1010.6
20260510110538 69 151 0.0 3.0 0.00 0.00 0.00 28 1010.5
20260510105517 69 130 0.0 3.0 0.00 0.00 0.00 27 1010.3
20260510104537 70 140 0.0 1.0 0.00 0.00 0.00 27 1010.3
20260510103517 70 128 0.0 1.0 0.00 0.00 0.00 27 1010.3
20260510102516 70 135 0.0 3.0 0.00 0.00 0.00 25 1010.1
20260510101557 71 127 1.0 2.0 0.00 0.00 0.00 25 1010.1
20260510100517 71 0.0 3.0 0.00 0.00 0.00 25 1010.1
20260510095516 71 130 0.0 2.0 0.00 0.00 0.00 25 1010.0
20260510094516 71 134 0.0 2.0 0.00 0.00 0.00 26 1010.0
20260510093517 72 128 0.0 3.0 0.00 0.00 0.00 25 1010.0
20260510092537 72 130 0.0 3.0 0.00 0.00 0.00 26 1009.9
20260510091516 72 127 0.0 1.0 0.00 0.00 0.00 26 1009.9
20260510090516 72 147 0.0 1.0 0.00 0.00 0.00 26 1009.9
20260510085517 73 0.0 1.0 0.00 0.00 0.00 26 1009.8
20260510084516 74 138 0.0 2.0 0.00 0.00 0.00 24 1009.8
20260510083517 75 119 0.0 1.0 0.00 0.00 0.00 23 1009.7
20260510082516 75 86 0.0 1.0 0.00 0.00 0.00 23 1009.7
20260510081517 76 121 0.0 3.0 0.00 0.00 0.00 22 1009.7
20260510080516 76 137 1.0 5.0 0.00 0.00 0.00 23 1009.7
20260510075537 76 131 1.0 5.0 0.00 0.00 0.00 23 1009.7
20260510074517 77 133 1.0 3.0 0.00 0.00 0.00 24 1009.7
20260510073517 78 41 0.0 1.0 0.00 0.00 0.00 23 1009.6
20260510072516 79 0.0 1.0 0.00 0.00 0.00 22 1009.6
20260510071516 79 352 0.0 1.0 0.00 0.00 0.00 21 1009.6
20260510070517 80 0.0 0.0 0.00 0.00 0.00 21 1009.5
20260510065017 80 0.0 0.0 0.00 0.00 0.00 19 1009.4
20260510064056 81 0.0 0.0 0.00 0.00 0.00 20 1009.3
20260510063016 82 0.0 1.0 0.00 0.00 0.00 19 1009.3
20260510062017 83 343 0.0 1.0 0.00 0.00 0.00 18 1009.3
20260510061016 84 350 0.0 3.0 0.00 0.00 0.00 17 1009.2
20260510060016 83 342 0.0 3.0 0.00 0.00 0.00 19 1009.0
20260510055017 84 354 0.0 1.0 0.00 0.00 0.00 15 1009.0
20260510054019 86 341 0.0 1.0 0.00 0.00 0.00 14 1008.9
20260510053019 86 286 0.0 1.0 0.00 0.00 0.00 14 1008.8
20260510052036 87 0.0 1.0 0.00 0.00 0.00 14 1008.7
20260510051038 88 0.0 1.0 0.00 0.00 0.00 13 1008.7
20260510050016 89 285 0.0 1.0 0.00 0.00 0.00 12 1008.7
20260510045016 89 287 0.0 2.0 0.00 0.00 0.00 12 1008.5
20260510044017 89 285 1.0 2.0 0.00 0.00 0.00 12 1008.4
20260510043016 89 272 0.0 2.0 0.00 0.00 0.00 13 1008.3
20260510042016 89 270 1.0 3.0 0.00 0.00 0.00 13 1008.3
20260510041017 89 274 0.0 2.0 0.00 0.00 0.00 13 1008.2
20260510040016 89 282 0.0 1.0 0.00 0.00 0.00 13 1008.1
20260510035017 90 278 0.0 1.0 0.00 0.00 0.00 14 1008.0
20260510034016 90 283 0.0 1.0 0.00 0.00 0.00 14 1007.9
20260510033016 91 348 0.0 1.0 0.00 0.00 0.00 14 1007.8
20260510032016 92 293 0.0 2.0 0.00 0.00 0.00 13 1007.6
20260510031036 92 280 0.0 2.0 0.00 0.00 0.00 13 1007.5
20260510030018 93 253 0.0 1.0 0.00 0.00 0.00 13 1007.3
20260510025016 94 284 1.0 4.0 0.00 0.00 0.00 12 1007.2
20260510024036 95 277 1.0 4.0 0.00 0.00 0.00 12 1007.1
20260510023017 95 284 2.0 4.0 0.00 0.00 0.00 11 1006.9
20260510022056 96 289 3.0 6.0 0.00 0.00 0.00 11 1006.9
20260510021016 97 292 2.0 5.0 0.00 0.00 0.00 11 1006.8
20260510020036 98 293 3.0 7.0 0.00 0.00 0.00 11 1006.7
20260510015036 99 288 4.0 8.0 0.00 0.00 0.00 10 1006.7
20260510014017 99 287 4.0 10.0 0.00 0.00 0.00 10 1006.6
20260510013017 100 284 4.0 9.0 0.00 0.00 0.00 10 1006.6
20260510012058 100 279 6.0 13.0 0.00 0.00 0.00 10 1006.6
20260510011016 100 294 4.0 10.0 0.00 0.00 0.00 9 1006.6
20260510010015 100 282 4.0 10.0 0.00 0.00 0.00 10 1006.6
20260510005016 100 295 6.0 12.0 0.00 0.00 0.00 9 1006.6
20260510004036 101 306 5.0 10.0 0.00 0.00 0.00 10 1006.6
20260510003016 101 296 4.0 12.0 0.00 0.00 0.00 9 1006.7
20260510002036 101 314 5.0 11.0 0.00 0.00 0.00 9 1006.7
20260510001036 101 321 5.0 13.0 0.00 0.00 0.00 10 1006.7
20260510000036 101 287 1.0 8.0 0.00 0.00 0.00 9 1006.8
20260509235056 101 323 6.0 15.0 0.00 0.00 0.00 10 1006.9
20260509234017 101 312 4.0 12.0 0.00 0.00 0.00 10 1007.0
20260509233015 101 301 6.0 11.0 0.00 0.00 0.00 10 1007.1
20260509232016 101 335 6.0 11.0 0.00 0.00 0.00 10 1007.2
20260509231018 102 275 4.0 9.0 0.00 0.00 0.00 10 1007.3
20260509230016 101 282 4.0 9.0 0.00 0.00 0.00 9 1007.5
20260509225015 101 315 4.0 9.0 0.00 0.00 0.00 10 1007.5
20260509224017 101 292 5.0 10.0 0.00 0.00 0.00 10 1007.7
20260509223015 101 293 5.0 10.0 0.00 0.00 0.00 10 1007.8
20260509222040 101 312 4.0 11.0 0.00 0.00 0.00 10 1008.0
20260509221016 100 301 5.0 10.0 0.00 0.00 0.00 10 1008.2
20260509220016 101 287 4.0 11.0 0.00 0.00 0.00 10 1008.3
20260509215016 100 301 3.0 10.0 0.00 0.00 0.00 11 1008.5
20260509214016 100 279 5.0 11.0 0.00 0.00 0.00 10 1008.6
20260509213016 100 275 3.0 10.0 0.00 0.00 0.00 10 1008.8
20260509212036 100 296 6.0 12.0 0.00 0.00 0.00 10 1009.0
20260509211016 99 303 6.0 12.0 0.00 0.00 0.00 10 1009.1
20260509210016 100 274 3.0 10.0 0.00 0.00 0.00 11 1009.2
20260509205015 99 284 4.0 11.0 0.00 0.00 0.00 11 1009.5
20260509204102 99 290 5.0 12.0 0.00 0.00 0.00 11 1009.6
20260509203016 98 300 6.0 13.0 0.00 0.00 0.00 11 1009.7
20260509202015 98 287 6.0 14.0 0.00 0.00 0.00 11 1009.8
20260509201037 99 287 3.0 9.0 0.00 0.00 0.00 11 1010.0
20260509200015 99 305 4.0 8.0 0.00 0.00 0.00 12 1010.1
20260509195016 99 8 0.0 3.0 0.00 0.00 0.00 13 1010.3
20260509194036 97 303 2.0 7.0 0.00 0.00 0.00 13 1010.5
20260509193016 97 301 3.0 7.0 0.00 0.00 0.00 14 1010.6
20260509192019 97 308 2.0 9.0 0.00 0.00 0.00 13 1010.8
20260509191015 97 294 1.0 4.0 0.00 0.00 0.00 14 1011.0
20260509190016 96 340 1.0 7.0 0.00 0.00 0.00 14 1011.1
20260509185016 97 8 1.0 7.0 0.00 0.00 0.00 14 1011.3
20260509184017 96 168 1.0 6.0 0.00 0.00 0.00 14 1011.4
20260509183015 95 290 1.0 5.0 0.00 0.00 0.00 14 1011.5
20260509182015 95 323 1.0 3.0 0.00 0.00 0.00 14 1011.6
20260509181016 95 183 1.0 5.0 0.00 0.00 0.00 14 1011.8
20260509180015 93 319 1.0 6.0 0.00 0.00 0.00 16 1011.9
20260509175015 94 265 1.0 3.0 0.00 0.00 0.00 15 1012.1
20260509174016 93 144 1.0 6.0 0.00 0.00 0.00 16 1012.1
20260509173055 92 138 1.0 5.0 0.00 0.00 0.00 16 1012.2
20260509172016 92 134 1.0 5.0 0.00 0.00 0.00 16 1012.3
20260509171015 91 133 1.0 5.0 0.00 0.00 0.00 17 1012.3
20260509170036 91 136 1.0 5.0 0.00 0.00 0.00 17 1012.2
20260509165017 90 141 0.0 3.0 0.00 0.00 0.00 17 1012.2
20260509164037 89 119 1.0 4.0 0.00 0.00 0.00 18 1012.2
20260509163016 88 142 2.0 6.0 0.00 0.00 0.00 18 1012.1
20260509162015 88 157 1.0 6.0 0.00 0.00 0.00 19 1012.1
20260509161016 87 143 2.0 5.0 0.00 0.00 0.00 19 1012.1
20260509160015 86 148 2.0 5.0 0.00 0.00 0.00 20 1012.1
20260509155035 85 140 2.0 6.0 0.00 0.00 0.00 21 1012.1
20260509154016 84 128 3.0 5.0 0.00 0.00 0.00 21 1012.1
20260509153015 83 144 2.0 5.0 0.00 0.00 0.00 23 1012.2
20260509152015 82 140 1.0 4.0 0.00 0.00 0.00 25 1012.1
20260509151015 81 128 2.0 5.0 0.00 0.00 0.00 25 1012.1
20260509150015 79 131 2.0 5.0 0.00 0.00 0.00 26 1012.1
20260509145015 78 134 2.0 6.0 0.00 0.00 0.00 27 1012.0
20260509144035 76 129 3.0 5.0 0.00 0.00 0.00 28 1012.0
20260509143016 75 128 3.0 6.0 0.00 0.00 0.00 30 1011.9
20260509142035 74 134 3.0 7.0 0.00 0.00 0.00 31 1011.9
20260509141015 73 132 2.0 5.0 0.00 0.00 0.00 31 1011.8
20260509140016 72 131 2.0 6.0 0.00 0.00 0.00 31 1011.8
20260509135016 71 128 3.0 6.0 0.00 0.00 0.00 31 1011.6
20260509134015 69 131 2.0 5.0 0.00 0.00 0.00 32 1011.5
20260509133021 69 132 2.0 6.0 0.00 0.00 0.00 32 1011.4
20260509132016 68 130 2.0 5.0 0.00 0.00 0.00 32 1011.3
20260509131016 68 131 3.0 7.0 0.00 0.00 0.00 33 1011.1
20260509130016 67 127 2.0 4.0 0.00 0.00 0.00 33 1011.0
20260509125038 66 128 1.0 5.0 0.00 0.00 0.00 33 1010.9
20260509124017 66 129 2.0 4.0 0.00 0.00 0.00 34 1010.7